Aeroporto :
LOGIN :

Iscrizione | Disclaimer

   EN    FR    IT 

 










Sommario :    VFR   VFR Marginale   IFR   IFR Intensivo   IFR Molto Intensivo
Visibilità : 
Base nubi : 
>= 8 km
>= 3000ft
5 / 8 km
1000 / 3000 ft
1500m / 5 km
500 / 1000 ft
800 / 1500m
200 / 500 ft
< 800m
< 200 ft
Simboli :   Temporali  Nebbia  Neve Forte  Precipitazioni Forti  Vento > 20 kt
SIGMETs :   Varie  Temporali  Ghiacco  Turbolenza  Onda orograficha  Ceneri Vulcaniche






- Altitudine del aeroporto : 1066 ft


EGOM - RAF Spadeadam

ULTIMO METAR :
  • 251950Z AUTO 28018KT 9999 NCD 09/05 Q1009

METARs OBSOLETI :
  • 251920Z AUTO 28024KT 9999 SCT040/// 10/05 Q1008
  • 251850Z AUTO 28022KT 9999 FEW037/// 10/04 Q1008
  • 251820Z AUTO 28025KT 9999 NCD 11/04 Q1008
  • 251750Z AUTO 28023G33KT 9999 FEW043/// 12/05 Q1007
  • 251720Z AUTO 27025KT 9999 SCT030/// 12/04 Q1007

Previsioni scadute.



MetMap, La meteo Aeronautica in un colpo d'occhio ! - Copyright ORBIFLY Dicembre 2007 - Disclaimer

ORBIFLY MET'MAP TEAM :

Programmazione e sviluppo : Alexandra Zaïnal
Concezione : Baudouin d'Aumeries
Supporto tecnico e logistico : Manuel Goepfert
Aiuto : Marc-Olivier Méhu
Aiuto per la traduzione : Arnaldo La Scala

Contatto : metmap@orbifly.com




FONTI E CREDITI :

   NOAA